FW0114 Weather Reports


time (UTC)temp
C
wind
direction
speed
KPH
gust
KPH
rain 1hr
cm
rain 24hr
cm
rain mn
cm
humidity
%
barometer
mb
20260510045018 11 242 0.0 20.9 0.00 0.30 0.00 91 991.3
20260510044527 11 205 3.2 20.9 0.00 0.30 0.00 91 991.2
20260510044014 11 236 0.0 17.7 0.00 0.30 0.00 91 991.1
20260510043514 11 223 0.0 9.7 0.00 0.30 0.00 91 991.1
20260510043013 11 267 0.0 9.7 0.00 0.30 0.00 91 991.0
20260510042512 11 233 0.0 14.5 0.00 0.30 0.00 91 990.8
20260510042011 11 238 4.8 14.5 0.00 0.30 0.00 91 990.7
20260510041513 11 202 0.0 16.1 0.00 0.30 0.00 91 990.6
20260510041010 11 232 0.0 16.1 0.00 0.30 0.00 91 990.5
20260510040510 11 240 0.0 16.1 0.00 0.30 0.00 91 990.5
20260510040011 11 181 0.0 20.9 0.00 0.30 0.30 91 990.5
20260510035509 11 244 0.0 16.1 0.03 0.30 0.30 91 990.7
20260510035010 11 138 0.0 12.9 0.10 0.30 0.30 91 990.6
20260510034509 11 228 0.0 14.5 0.15 0.30 0.30 91 990.6
20260510034009 11 215 0.0 20.9 0.28 0.30 0.30 91 990.5
20260510033508 11 259 0.0 11.3 0.30 0.30 0.30 91 990.4
20260510033008 11 214 0.0 1.6 0.30 0.30 0.30 90 990.6
20260510032508 11 290 0.0 3.2 0.30 0.30 0.30 90 990.6
20260510032008 11 245 0.0 0.0 0.30 0.30 0.30 89 990.4
20260510031508 11 211 0.0 1.6 0.30 0.30 0.30 89 990.5
20260510031008 11 165 0.0 1.6 0.30 0.30 0.30 88 990.5
20260510030506 11 190 0.0 0.0 0.30 0.30 0.30 87 990.5
20260510030006 11 210 0.0 4.8 0.30 0.30 0.30 85 990.5
20260510025506 12 238 0.0 4.8 0.25 0.25 0.25 84 990.6
20260510025006 12 201 0.0 3.2 0.20 0.20 0.20 82 990.7
20260510024505 12 193 0.0 9.7 0.13 0.13 0.13 80 990.7
20260510024004 13 205 0.0 12.9 0.00 0.00 0.00 77 990.3
20260510023504 13 211 0.0 14.5 0.00 0.00 0.00 76 990.2
20260510023007 13 194 0.0 14.5 0.00 0.00 0.00 75 990.1
20260510022507 13 195 0.0 11.3 0.00 0.00 0.00 75 990.0
20260510022003 13 177 0.0 8.0 0.00 0.00 0.00 75 989.9
20260510021506 13 211 0.0 11.3 0.00 0.00 0.00 74 990.0
20260510021003 13 199 0.0 11.3 0.00 0.00 0.00 74 990.0
20260510020506 13 198 0.0 12.9 0.00 0.00 0.00 74 989.9
20260510020003 13 163 0.0 14.5 0.00 0.00 0.00 74 989.8
20260510015501 13 187 0.0 11.3 0.00 0.00 0.00 74 990.0
20260510015000 13 178 0.0 14.5 0.00 0.00 0.00 73 990.1
20260510014600 13 163 0.0 14.5 0.00 0.00 0.00 73 990.2
20260510014101 13 200 0.0 22.5 0.00 0.00 0.00 73 990.4
20260510014002 13 178 0.0 22.5 0.00 0.00 0.00 73 990.4
20260510013600 13 174 0.0 22.5 0.00 0.00 0.00 73 990.4
20260510013103 13 191 0.0 14.5 0.00 0.00 0.00 73 990.5
20260510012559 13 191 0.0 14.5 0.00 0.00 0.00 72 990.4
20260510012059 13 147 1.6 14.5 0.00 0.00 0.00 72 990.3
20260510011602 13 188 0.0 14.5 0.00 0.00 0.00 72 990.4
20260510011059 13 178 0.0 8.0 0.00 0.00 0.00 72 990.4
20260510010559 13 150 0.0 1.6 0.00 0.00 0.00 72 990.3
20260510010107 13 193 0.0 1.6 0.00 0.00 0.00 71 990.3
20260510005559 13 264 0.0 0.0 0.00 0.00 0.00 71 990.3
20260510005058 14 168 0.0 0.0 0.00 0.00 0.00 71 990.3
20260510004558 14 170 0.0 1.6 0.00 0.00 0.00 70 990.4
20260510004057 14 184 0.0 1.6 0.00 0.00 0.00 70 990.4
20260510003557 14 150 0.0 3.2 0.00 0.00 0.00 69 990.5
20260510003058 14 178 0.0 3.2 0.00 0.00 0.00 69 990.6
20260510002557 14 186 0.0 11.3 0.00 0.00 0.00 68 990.4
20260510002057 15 132 0.0 12.9 0.00 0.00 0.00 68 990.5
20260510001557 15 151 0.0 12.9 0.00 0.00 0.00 68 990.6
20260510001058 15 189 0.0 4.8 0.00 0.00 0.00 67 990.8
20260510000557 15 207 0.0 9.7 0.00 0.00 0.00 67 990.8
20260510000106 15 210 0.0 0.0 0.00 0.00 0.00 67 990.9
20260509235557 15 150 0.0 3.2 0.00 0.00 0.00 66 991.0
20260509235056 15 188 0.0 9.7 0.00 0.00 0.00 66 991.0
20260509234601 15 208 0.0 3.2 0.00 0.00 0.00 65 991.0
20260509234056 15 191 0.0 16.1 0.00 0.00 0.00 64 991.2
20260509233557 15 180 1.6 17.7 0.00 0.00 0.00 64 991.2
20260509233056 16 188 3.2 20.9 0.00 0.00 0.00 63 991.3
20260509232555 16 237 0.0 20.9 0.00 0.00 0.00 63 991.2
20260509232055 16 201 3.2 17.7 0.00 0.00 0.00 63 991.3
20260509231555 16 161 1.6 17.7 0.00 0.00 0.00 62 991.2
20260509231054 16 225 1.6 22.5 0.00 0.00 0.00 62 991.1
20260509230555 16 248 1.6 22.5 0.00 0.00 0.00 61 990.9
20260509230055 16 228 1.6 19.3 0.00 0.00 0.00 61 990.8
20260509225555 16 229 0.0 19.3 0.00 0.00 0.00 60 990.8
20260509225054 16 240 3.2 19.3 0.00 0.00 0.00 59 990.8
20260509224554 16 212 1.6 22.5 0.00 0.00 0.00 59 990.7
20260509224056 16 221 4.8 22.5 0.00 0.00 0.00 58 990.7
20260509223554 17 184 3.2 22.5 0.00 0.00 0.00 57 990.5
20260509223101 17 197 1.6 20.9 0.00 0.00 0.00 57 990.6
20260509222555 17 172 3.2 20.9 0.00 0.00 0.00 56 990.5
20260509222053 17 171 4.8 22.5 0.00 0.00 0.00 54 990.5
20260509221552 17 201 3.2 22.5 0.00 0.00 0.00 51 990.3
20260509221053 17 215 1.6 19.3 0.00 0.00 0.00 50 990.4
20260509220551 17 178 0.0 19.3 0.00 0.00 0.00 49 990.4
20260509220050 17 167 0.0 11.3 0.00 0.00 0.00 48 990.5
20260509215550 17 147 0.0 11.3 0.00 0.00 0.00 48 990.6
20260509215049 17 145 0.0 11.3 0.00 0.00 0.00 47 990.7
20260509214550 17 206 0.0 11.3 0.00 0.00 0.00 48 990.6
20260509214048 17 244 0.0 11.3 0.00 0.00 0.00 47 990.7
20260509213548 18 233 0.0 11.3 0.00 0.00 0.00 46 990.8
20260509213048 18 214 0.0 14.5 0.00 0.00 0.00 45 990.7
20260509212550 18 217 1.6 24.1 0.00 0.00 0.00 44 990.8
20260509212047 18 200 1.6 24.1 0.00 0.00 0.00 47 990.8
20260509211547 18 230 4.8 19.3 0.00 0.00 0.00 45 990.8
20260509211047 18 164 1.6 17.7 0.00 0.00 0.00 44 990.8
20260509210547 18 173 0.0 20.9 0.00 0.00 0.00 44 990.9
20260509210053 18 186 0.0 22.5 0.00 0.00 0.00 44 990.8
20260509205545 18 189 3.2 17.7 0.00 0.00 0.00 45 990.7
20260509205049 17 194 1.6 14.5 0.00 0.00 0.00 45 990.9
20260509204552 17 107 0.0 16.1 0.00 0.00 0.00 45 990.9
20260509204044 18 171 1.6 16.1 0.00 0.00 0.00 44 990.9
20260509203544 18 200 0.0 19.3 0.00 0.00 0.00 45 990.9
20260509203044 18 153 4.8 19.3 0.00 0.00 0.00 44 991.0
20260509202543 18 196 1.6 19.3 0.00 0.00 0.00 42 991.0
20260509202044 18 184 3.2 19.3 0.00 0.00 0.00 42 991.0
20260509201547 18 180 0.0 19.3 0.00 0.00 0.00 43 991.0
20260509201042 18 181 0.0 19.3 0.00 0.00 0.00 40 991.1
20260509200542 18 170 0.0 17.7 0.00 0.00 0.00 40 991.1
20260509200059 18 208 3.2 25.7 0.00 0.00 0.00 40 991.1
20260509195541 19 192 1.6 20.9 0.00 0.00 0.00 37 991.1
20260509195040 19 131 0.0 22.5 0.00 0.00 0.00 41 991.2
20260509194540 18 238 1.6 20.9 0.00 0.00 0.00 40 991.3
20260509194039 19 223 1.6 20.9 0.00 0.00 0.00 38 991.4
20260509193539 18 141 0.0 16.1 0.00 0.00 0.00 39 991.4
20260509193039 19 176 1.6 17.7 0.00 0.00 0.00 38 991.5
20260509192537 18 192 0.0 20.9 0.00 0.00 0.00 36 991.6
20260509192036 18 168 0.0 20.9 0.00 0.00 0.00 36 991.6
20260509191537 19 218 0.0 12.9 0.00 0.00 0.00 34 991.6
20260509191036 19 167 0.0 11.3 0.00 0.00 0.00 34 991.7
20260509190535 19 145 0.0 20.9 0.00 0.00 0.00 36 991.8
20260509190036 20 130 0.0 11.3 0.00 0.00 0.00 34 991.9
20260509185533 19 175 1.6 12.9 0.00 0.00 0.00 33 992.0
20260509185032 19 98 0.0 14.5 0.00 0.00 0.00 35 992.0
20260509184543 19 219 1.6 14.5 0.00 0.00 0.00 33 992.2
20260509184030 18 136 0.0 14.5 0.00 0.00 0.00 34 992.2
20260509183529 18 215 1.6 14.5 0.00 0.00 0.00 33 992.3
20260509183032 18 126 1.6 17.7 0.00 0.00 0.00 32 992.4
20260509182528 18 208 1.6 17.7 0.00 0.00 0.00 33 992.5
20260509182027 18 238 1.6 16.1 0.00 0.00 0.00 34 992.6
20260509181527 18 89 0.0 16.1 0.00 0.00 0.00 37 992.6
20260509181026 18 119 1.6 16.1 0.00 0.00 0.00 36 992.8
20260509180525 18 122 0.0 16.1 0.00 0.00 0.00 37 992.9
20260509180025 18 92 1.6 16.1 0.00 0.00 0.00 33 992.9
20260509175524 18 130 0.0 4.8 0.00 0.00 0.00 34 992.8
20260509175023 18 170 0.0 16.1 0.00 0.00 0.00 36 992.9
20260509174526 18 236 0.0 19.3 0.00 0.00 0.00 38 993.0
20260509174022 18 214 0.0 20.9 0.00 0.00 0.00 34 992.9
20260509173524 18 180 4.8 20.9 0.00 0.00 0.00 35 993.1
20260509173020 18 167 0.0 19.3 0.00 0.00 0.00 36 993.1
20260509172519 17 69 1.6 19.3 0.00 0.00 0.00 36 993.3
20260509172019 18 146 4.8 19.3 0.00 0.00 0.00 36 993.4
20260509171519 18 205 0.0 11.3 0.00 0.00 0.00 39 993.4
20260509171017 18 142 0.0 11.3 0.00 0.00 0.00 39 993.5
20260509170516 18 157 0.0 11.3 0.00 0.00 0.00 44 993.6
20260509170016 18 172 0.0 12.9 0.00 0.00 0.00 35 993.6
20260509165514 17 142 0.0 20.9 0.00 0.00 0.00 36 993.7
20260509165013 17 187 0.0 20.9 0.00 0.00 0.00 36 993.9
20260509164513 17 209 3.2 22.5 0.00 0.00 0.00 40 993.9
20260509164012 17 195 0.0 12.9 0.00 0.00 0.00 37 994.0
20260509163516 17 142 1.6 12.9 0.00 0.00 0.00 40 994.0
20260509163013 18 178 1.6 11.3 0.00 0.00 0.00 41 994.0
20260509162509 17 136 0.0 16.1 0.00 0.00 0.00 43 994.1
20260509162007 17 215 0.0 14.5 0.00 0.00 0.00 41 994.3
20260509161507 17 145 0.0 16.1 0.00 0.00 0.00 36 994.3
20260509161008 17 209 0.0 16.1 0.00 0.00 0.00 39 994.5
20260509160505 17 200 0.0 11.3 0.00 0.00 0.00 38 994.7
20260509160004 17 225 0.0 16.1 0.00 0.00 0.00 38 994.8
20260509155502 16 153 3.2 16.1 0.00 0.00 0.00 38 994.9
20260509155002 17 150 1.6 16.1 0.00 0.00 0.00 36 995.0
20260509154601 17 162 0.0 19.3 0.00 0.00 0.00 39 995.1
20260509154059 16 180 3.2 24.1 0.00 0.00 0.00 37 995.2
20260509153558 16 194 4.8 24.1 0.00 0.00 0.00 37 995.4
20260509153057 16 200 3.2 17.7 0.00 0.00 0.00 37 995.4
20260509152557 16 178 1.6 17.7 0.00 0.00 0.00 36 995.5
20260509152100 16 215 4.8 20.9 0.00 0.00 0.00 37 995.6
20260509151602 16 140 0.0 11.3 0.00 0.00 0.00 43 995.7
20260509151052 16 189 0.0 14.5 0.00 0.00 0.00 41 995.8
20260509150551 16 142 0.0 19.3 0.00 0.00 0.00 43 995.8
20260509150051 16 161 1.6 20.9 0.00 0.00 0.00 41 995.8
20260509145550 16 207 3.2 17.7 0.00 0.00 0.00 41 995.8
20260509145049 16 161 0.0 17.7 0.00 0.00 0.00 43 995.9
20260509144603 15 212 0.0 14.5 0.00 0.00 0.00 46 995.9
20260509144046 16 209 0.0 17.7 0.00 0.00 0.00 48 996.0
20260509143545 15 148 0.0 17.7 0.00 0.00 0.00 49 996.0
20260509143051 15 200 0.0 8.0 0.00 0.00 0.00 48 996.1
20260509142542 15 228 0.0 1.6 0.00 0.00 0.00 51 996.1
20260509142041 14 250 0.0 8.0 0.00 0.00 0.00 52 996.1
20260509141541 14 276 0.0 12.9 0.00 0.00 0.00 50 996.1
20260509141038 14 247 0.0 12.9 0.00 0.00 0.00 50 996.1
20260509140537 13 185 0.0 8.0 0.00 0.00 0.00 54 996.1
20260509140035 13 192 0.0 1.6 0.00 0.00 0.00 52 996.2
20260509135534 13 191 0.0 3.2 0.00 0.00 0.00 50 996.2
20260509135035 13 208 0.0 9.7 0.00 0.00 0.00 51 996.2
20260509134556 13 227 0.0 9.7 0.00 0.00 0.00 53 996.3
20260509134029 12 140 0.0 0.0 0.00 0.00 0.00 56 996.3
20260509133528 12 146 0.0 0.0 0.00 0.00 0.00 55 996.4
20260509133026 12 205 0.0 0.0 0.00 0.00 0.00 56 996.4
20260509132526 11 150 0.0 1.6 0.00 0.00 0.00 57 996.4
20260509132023 11 192 0.0 1.6 0.00 0.00 0.00 60 996.5
20260509131522 11 238 0.0 0.0 0.00 0.00 0.00 57 996.6
20260509131021 11 138 0.0 0.0 0.00 0.00 0.00 59 996.6
20260509130521 10 132 0.0 0.0 0.00 0.00 0.00 59 996.7
20260509130019 10 225 0.0 0.0 0.00 0.00 0.00 62 996.8
20260509125517 10 226 0.0 0.0 0.00 0.00 0.00 59 996.8
20260509125015 10 232 0.0 0.0 0.00 0.00 0.00 62 996.8
20260509124514 8 232 0.0 0.0 0.00 0.00 0.00 62 996.8
20260509124012 8 223 0.0 0.0 0.00 0.00 0.00 64 996.9
20260509123511 8 223 0.0 0.0 0.00 0.00 0.00 65 997.0
20260509123011 7 223 0.0 0.0 0.00 0.00 0.00 64 997.0
20260509122510 7 224 0.0 1.6 0.00 0.00 0.00 65 997.1
20260509122015 7 224 0.0 0.0 0.00 0.00 0.00 64 997.1
20260509121521 7 198 0.0 0.0 0.00 0.00 0.00 65 997.0
20260509121008 7 360 0.0 1.6 0.00 0.00 0.00 66 997.1
20260509120507 7 360 0.0 1.6 0.00 0.00 0.00 65 997.1
20260509120007 7 223 0.0 0.0 0.00 0.00 0.00 66 997.1
20260509115505 6 194 0.0 0.0 0.00 0.00 0.00 65 997.1
20260509115004 6 226 0.0 1.6 0.00 0.00 0.00 65 997.0
20260509114515 6 173 0.0 4.8 0.00 0.00 0.00 66 996.9
20260509114002 6 195 0.0 4.8 0.00 0.00 0.00 68 996.9
20260509113503 6 161 0.0 3.2 0.00 0.00 0.00 67 996.9
20260509113000 6 136 0.0 0.0 0.00 0.00 0.00 71 996.9
20260509112600 5 199 0.0 0.0 0.00 0.00 0.00 72 996.8
20260509112059 5 213 0.0 1.6 0.00 0.00 0.00 72 996.8
20260509111606 5 119 0.0 1.6 0.00 0.00 0.00 75 996.8
20260509111058 4 228 0.0 0.0 0.00 0.00 0.00 76 996.8
20260509110557 3 229 0.0 0.0 0.00 0.00 0.00 78 996.8
20260509105557 3 229 0.0 0.0 0.00 0.00 0.00 81 996.8
20260509105055 2 230 0.0 0.0 0.00 0.00 0.00 83 996.8
20260509104553 2 230 0.0 0.0 0.00 0.00 0.00 84 996.7
20260509104051 1 230 0.0 0.0 0.00 0.00 0.00 84 996.7
20260509103550 1 360 0.0 0.0 0.00 0.00 0.00 83 996.7
20260509103101 1 230 0.0 0.0 0.00 0.00 0.00 82 996.7
20260509102548 1 230 0.0 0.0 0.00 0.00 0.00 82 996.7
20260509102047 1 230 0.0 0.0 0.00 0.00 0.00 81 996.8
20260509101616 1 230 0.0 0.0 0.00 0.00 0.00 81 996.8
20260509101044 1 230 0.0 0.0 0.00 0.00 0.00 81 996.8
20260509100545 1 230 0.0 0.0 0.00 0.00 0.00 81 996.8
20260509100044 1 230 0.0 0.0 0.00 0.00 0.00 81 996.6
20260509095543 1 230 0.0 0.0 0.00 0.00 0.00 81 996.7
20260509095042 1 230 0.0 0.0 0.00 0.00 0.00 81 996.6
20260509094542 1 230 0.0 0.0 0.00 0.00 0.00 81 996.6
20260509094042 1 230 0.0 0.0 0.00 0.00 0.00 81 996.5
20260509093541 1 230 0.0 0.0 0.00 0.00 0.00 81 996.5
20260509093041 1 230 0.0 0.0 0.00 0.00 0.00 81 996.4
20260509092539 1 230 0.0 0.0 0.00 0.00 0.00 81 996.4
20260509092039 1 230 0.0 0.0 0.00 0.00 0.00 81 996.4
20260509091543 1 230 0.0 0.0 0.00 0.00 0.00 81 996.4
20260509091038 1 230 0.0 0.0 0.00 0.00 0.00 81 996.4
20260509090538 1 230 0.0 0.0 0.00 0.00 0.00 81 996.5
20260509090041 1 230 0.0 0.0 0.00 0.00 0.00 81 996.6
20260509085537 1 230 0.0 0.0 0.00 0.00 0.00 81 996.6
20260509085036 1 230 0.0 0.0 0.00 0.00 0.00 80 996.6
20260509084539 1 230 0.0 0.0 0.00 0.00 0.00 80 996.6
20260509084036 1 230 0.0 0.0 0.00 0.00 0.00 80 996.6
20260509083535 1 230 0.0 0.0 0.00 0.00 0.00 80 996.6
20260509083035 1 230 0.0 0.0 0.00 0.00 0.00 79 996.6
20260509082534 1 230 0.0 0.0 0.00 0.00 0.00 79 996.6
20260509082034 1 230 0.0 0.0 0.00 0.00 0.00 79 996.6
20260509081539 2 230 0.0 0.0 0.00 0.00 0.00 79 996.6
20260509081034 2 230 0.0 0.0 0.00 0.00 0.00 79 996.6
20260509080533 2 230 0.0 0.0 0.00 0.00 0.00 78 996.5
20260509080036 2 230 0.0 0.0 0.00 0.00 0.00 78 996.7
20260509075532 2 230 0.0 0.0 0.00 0.00 0.00 77 996.6
20260509075034 2 230 0.0 0.0 0.00 0.00 0.00 77 996.6
20260509074541 2 230 0.0 0.0 0.00 0.00 0.00 77 996.6
20260509074029 2 230 0.0 0.0 0.00 0.00 0.00 76 996.6
20260509073528 2 230 0.0 0.0 0.00 0.00 0.00 76 996.7
20260509073027 2 230 0.0 0.0 0.00 0.00 0.00 76 996.7
20260509072527 2 230 0.0 0.0 0.00 0.00 0.00 76 996.8
20260509072025 3 230 0.0 0.0 0.00 0.00 0.00 75 996.8
20260509071526 3 230 0.0 0.0 0.00 0.00 0.00 75 996.9
20260509071023 3 230 0.0 0.0 0.00 0.00 0.00 74 996.8
20260509070523 3 230 0.0 0.0 0.00 0.00 0.00 74 996.8
20260509070023 3 230 0.0 0.0 0.00 0.00 0.00 74 996.8
20260509065521 3 230 0.0 0.0 0.00 0.00 0.00 74 996.8
20260509065023 3 231 0.0 0.0 0.00 0.00 0.00 73 996.8
20260509064520 3 231 0.0 0.0 0.00 0.00 0.00 73 996.8
20260509064022 4 231 0.0 0.0 0.00 0.00 0.00 73 996.8
20260509063517 4 231 0.0 0.0 0.00 0.00 0.00 73 996.8
20260509063025 4 231 0.0 0.0 0.00 0.00 0.00 72 996.8
20260509062521 4 231 0.0 0.0 0.00 0.00 0.00 72 996.8
20260509062017 4 231 0.0 0.0 0.00 0.00 0.00 72 996.9
20260509061514 5 231 0.0 0.0 0.00 0.00 0.00 72 996.9
20260509061021 5 231 0.0 0.0 0.00 0.00 0.00 71 996.9
20260509060512 5 231 0.0 0.0 0.00 0.00 0.00 71 996.9
20260509060016 5 231 0.0 3.2 0.00 0.00 0.00 71 996.9
20260509055511 5 231 0.0 3.2 0.00 0.00 0.00 71 996.9
20260509055010 5 236 0.0 0.0 0.00 0.00 0.00 70 996.9
20260509054509 5 242 0.0 0.0 0.00 0.00 0.00 70 997.1
20260509054008 5 251 0.0 1.6 0.00 0.00 0.00 70 997.1
20260509053508 5 225 0.0 11.3 0.00 0.00 0.00 70 997.1
20260509053008 5 225 0.0 11.3 0.00 0.00 0.00 70 997.1
20260509052507 5 238 0.0 4.8 0.00 0.00 0.00 70 997.1
20260509052007 5 249 0.0 3.2 0.00 0.00 0.00 70 997.1
20260509051508 5 253 0.0 1.6 0.00 0.00 0.00 70 997.2
20260509051007 5 224 0.0 1.6 0.00 0.00 0.00 70 997.2
20260509050506 5 242 0.0 1.6 0.00 0.00 0.00 70 997.3
20260509050006 5 241 0.0 1.6 0.00 0.00 0.00 70 997.2